Vertical_Velocity
-3 4 6 -4 1 2 2 6 2 -3 -1 3 -7 1 0 -4 5 -1 -1 1 -1 0 -2 2 2 2 -1 -4 -2 -1 -5 -0 -1 -0 -2 0 -1 1 1 -1 -3 -2 -1 -5 -7
-1 -4 9 5 6 3 0 7 1 -3 -6 6 -3 10 3 -5 0 2 -1 1 1 -1 -1 2 0 1 -5 -2 -0 -5 -2 -3 -1 -1 -0 -0 1 0 -2 0 -5 -6 -5 -6 1
5 -0 5 5 1 6 4 4 1 -5 0 -9 -2 16 6 -1 -2 2 2 -3 0 0 -1 1 -1 -3 -4 0 -1 1 -2 -1 -0 1 0 -0 -2 1 1 -2 -5 -3 -1 -3 -7
-2 4 -1 1 -3 -2 3 7 7 -5 -10 -8 4 -10 -5 5 -5 1 0 3 -4 1 -3 -1 -1 -3 -2 -1 0 -3 0 -0 -1 0 -1 -1 -0 -1 1 -25 4 -3 1 -2 -4
-3 7 -6 -2 -5 -6 5 0 2 1 -5 -2 46 -6 -4 -4 2 6 -0 3 3 -1 -1 -1 -0 -1 -2 -1 -0 -2 -0 -1 -0 -0 -1 4 -2 -4 -14 -2 -0 1 3 -1 -2
-7 8 -0 -4 -5 4 5 1 3 4 -6 -5 5 -4 -6 -12 4 7 2 1 -0 2 -2 -1 -1 1 -4 -1 -2 -0 -0 -2 -0 0 -0 2 -2 2 -7 3 0 1 1 1 2
2 -2 2 -2 -14 2 3 0 -1 12 -8 11 12 26 6 -2 3 6 3 -1 1 1 -6 -1 -3 -1 1 -0 1 -1 -2 -2 -0 -0 -1 4 -0 -2 0 1 -4 -3 -6 -6 1
1 0 3 2 -6 -1 -1 3 -2 4 2 3 10 -21 4 3 3 1 5 -2 2 -0 -3 -1 -0 -7 -3 0 -3 -3 -4 -2 1 -1 -0 -2 -5 -3 -1 0 -1 -3 -4 -4 -5
2 0 -0 6 -3 -2 -1 3 -1 1 1 -11 19 -13 9 5 2 1 3 -5 -1 -0 -4 -2 -2 -3 -1 -3 -3 -4 -1 -0 -6 0 -0 -2 -5 -4 -5 2 -5 -3 -1 -4 -7
3 1 6 1 -3 -1 1 3 2 5 22 5 -7 -21 1 3 -1 1 -1 -1 -5 -2 -2 -5 -4 -3 -2 -4 -4 -1 -1 -1 -1 -3 -1 -2 -9 -5 -5 4 -2 -5 -6 -4 -4
-3 3 -6 -5 3 8 12 5 -5 -12 -14 0 5 -9 -8 4 1 3 2 -1 -3 -3 -2 -1 -8 -1 0 -0 -1 -1 -0 -0 -3 -3 4 -1 -1 -6 -6 -0 -1 -3 -4 -4 -2
-1 -2 1 2 4 2 -0 -10 -2 -14 1 17 0 -4 4 2 -3 -0 1 -3 -4 -0 -0 -7 -2 -0 -1 -0 -1 -0 0 -3 -6 -1 6 -1 -9 -4 -0 -1 1 0 -5 2 -10
-7 -4 -1 1 2 0 -21 -11 2 -7 -12 2 9 -5 -1 2 1 0 1 -0 -2 -2 -0 -2 -0 -0 -0 0 -1 -1 -1 -1 -1 -2 -1 2 -4 -2 -1 -2 -0 -2 2 -0 3
7 -8 -3 0 8 5 -29 -0 -2 -3 -8 3 -5 -4 0 0 -5 -1 -1 0 -2 -1 -0 -1 1 -0 0 -0 -3 1 -2 0 1 0 0 -2 -6 -2 -1 -3 -1 -3 -1 -4 3
4 1 -3 -5 -2 -3 1 6 3 5 -12 1 -3 -1 6 -5 -4 -4 -0 -1 -0 0 -9 -5 0 0 1 -5 -0 -4 -0 0 1 1 2 0 5 -9 0 -4 -4 -3 -2 3 -3
-0 1 5 -13 -3 -8 -3 -3 -0 -23 0 -1 0 -1 -3 -1 -0 1 -2 -0 0 -2 -2 -2 2 -0 -4 -1 -1 0 0 -1 -0 -1 1 -3 0 -5 0 4 -5 -4 -1 -0 -2
-0 -1 3 -3 -7 -2 7 3 -16 -9 2 -1 -1 -0 -1 0 -1 -1 -1 -3 -3 -8 -4 -3 -1 -1 0 1 1 2 1 -2 -6 -4 -4 -0 1 -8 -0 -1 5 3 1 -0 -2
-2 1 -2 0 -4 -3 -3 -13 -16 1 2 1 -0 -0 -1 -1 0 -0 -1 -2 -2 -0 -1 -2 -9 -1 0 -1 -3 -0 -0 2 1 -1 -3 -0 -3 -5 2 -0 -0 4 3 0 0
-1 -1 -2 -7 2 1 -6 -9 -2 -1 -1 -1 -1 -2 -1 0 -4 0 -0 -1 -2 -2 -6 -1 -6 -1 -0 -0 -4 1 -0 1 1 -0 2 -3 -5 1 -2 -3 -2 -1 -2 -2 2
-4 -2 0 -1 -2 -3 -11 -1 -1 -0 -1 0 -1 -0 -1 -0 -0 1 0 -3 -0 -1 -0 0 -3 -1 0 -1 -1 -4 -2 -3 -1 -0 -1 -3 -1 -3 -5 -2 -1 -1 -1 -2 1
-4 -2 1 0 -0 -10 -3 0 0 -0 1 -1 -0 -1 -0 -1 -1 -0 -1 -4 -0 1 -0 -0 -1 -11 -2 -1 -3 -1 -0 1 0 -1 -1 -0 -5 -1 0 1 0 -0 0 -1 2
-1 -8 5 -1 -16 1 -1 1 1 -1 0 -0 -1 -1 -2 -0 -0 -0 -1 -1 0 -1 -0 -0 1 -0 -6 -0 0 -0 -1 -2 -3 -3 -1 1 -10 -0 0 1 0 -0 -1 1 1
-2 1 4 3 -6 -1 -0 -0 -0 -1 0 -0 0 -1 -0 -1 -2 0 0 1 -1 -1 -2 -2 -2 -2 -13 -9 0 0 -1 -1 -1 -1 -3 -1 -7 0 1 0 -2 -1 -1 -1 -0
-2 -7 -5 -9 -1 -4 -1 0 0 1 0 -0 -1 -1 -1 -1 0 -1 -1 0 -0 -1 1 0 0 -4 -7 -9 -2 0 1 0 -2 -0 -2 -4 -3 -0 -0 -0 -0 -1 -0 -1 0
-2 1 1 -3 -3 -0 -1 -1 -0 -1 -0 0 1 -1 -1 -1 -1 -0 -0 -2 1 0 1 -3 0 1 -2 -2 2 -1 -0 -0 0 -4 -3 -4 -1 -3 -3 -3 -6 -2 0 -0 0
-3 -1 -2 -0 -1 -0 -1 -1 -1 -0 -2 -0 -3 -0 -0 -1 -5 -2 -1 0 -3 1 -0 0 -3 0 -3 -1 1 0 -0 0 -0 -0 1 1 -6 -4 0 2 2 -3 -0 -2 -2
-2 -2 3 0 -0 -2 -1 -1 -2 1 -2 1 -2 -1 1 -6 -3 -3 -1 0 -4 -5 -0 -1 -1 -2 -5 0 -1 -4 -3 -1 -1 -0 -6 -2 -11 -0 1 0 -3 -2 -2 -2 -1
Height
1476 1477 1477 1477 1478 1478 1479 1479 1478 1480 1484 1485 1487 1490 1494 1498 1500 1501 1504 1507 1507 1510 1511 1511 1512 1514 1515 1519 1522 1523 1530 1536 1535 1537 1532 1532 1532 1533 1533 1532 1532 1531 1528 1526 1524
1471 1472 1474 1474 1476 1476 1477 1478 1477 1479 1480 1481 1487 1488 1493 1497 1500 1501 1506 1507 1507 1509 1511 1512 1512 1514 1516 1521 1523 1525 1533 1533 1534 1534 1533 1532 1531 1532 1532 1531 1529 1526 1524 1524 1523
1469 1469 1470 1471 1472 1474 1475 1476 1476 1478 1480 1481 1488 1486 1490 1496 1501 1505 1505 1507 1509 1509 1512 1513 1512 1515 1520 1523 1527 1528 1530 1530 1532 1533 1533 1533 1532 1532 1531 1529 1521 1520 1519 1519 1518
1467 1466 1467 1468 1470 1472 1474 1475 1475 1478 1481 1480 1486 1488 1490 1496 1505 1506 1508 1508 1509 1510 1511 1514 1514 1517 1523 1526 1527 1530 1532 1532 1532 1532 1532 1532 1531 1530 1530 1518 1517 1516 1515 1514 1514
1466 1465 1464 1467 1468 1470 1472 1473 1473 1476 1481 1485 1483 1484 1490 1495 1505 1507 1508 1509 1509 1510 1512 1514 1515 1517 1523 1526 1527 1528 1532 1531 1530 1530 1530 1530 1528 1529 1518 1512 1512 1510 1510 1509 1509
1465 1465 1462 1464 1465 1466 1470 1472 1472 1473 1477 1482 1480 1483 1489 1498 1506 1508 1508 1509 1510 1510 1513 1515 1516 1517 1521 1527 1527 1530 1532 1529 1527 1527 1527 1528 1526 1523 1508 1509 1509 1508 1507 1506 1505
1465 1464 1463 1464 1464 1466 1469 1471 1472 1473 1476 1482 1483 1484 1491 1502 1507 1509 1510 1510 1511 1512 1513 1515 1517 1519 1522 1527 1528 1530 1530 1526 1526 1526 1526 1525 1523 1518 1510 1509 1506 1505 1504 1501 1498
1465 1463 1463 1464 1464 1466 1467 1470 1471 1473 1475 1478 1481 1486 1496 1503 1507 1511 1511 1511 1513 1513 1514 1517 1518 1519 1523 1528 1530 1534 1534 1531 1529 1527 1525 1524 1515 1513 1510 1507 1504 1501 1497 1493 1489
1465 1464 1464 1464 1464 1464 1464 1467 1471 1474 1477 1481 1484 1486 1502 1507 1510 1512 1513 1513 1515 1515 1516 1518 1519 1523 1528 1532 1537 1540 1535 1540 1531 1527 1526 1524 1515 1513 1509 1506 1499 1495 1492 1488 1481
1468 1466 1465 1464 1464 1461 1459 1465 1472 1476 1478 1484 1485 1490 1506 1508 1512 1514 1516 1516 1517 1518 1518 1519 1522 1528 1534 1536 1543 1538 1542 1542 1539 1528 1527 1525 1511 1510 1505 1503 1497 1493 1489 1485 1479
1471 1469 1467 1465 1466 1466 1465 1470 1479 1483 1487 1491 1494 1496 1507 1514 1516 1518 1518 1519 1519 1520 1522 1524 1531 1538 1536 1538 1540 1544 1547 1548 1536 1530 1531 1522 1513 1499 1499 1499 1496 1493 1488 1481 1474
1473 1471 1468 1466 1467 1471 1472 1474 1480 1485 1491 1497 1499 1509 1515 1517 1519 1520 1521 1522 1521 1525 1525 1529 1538 1535 1536 1538 1539 1544 1547 1545 1533 1530 1528 1514 1505 1497 1496 1496 1496 1491 1487 1480 1471
1477 1472 1471 1470 1470 1475 1477 1480 1484 1486 1496 1507 1512 1516 1518 1520 1521 1523 1524 1523 1524 1526 1529 1532 1533 1534 1535 1538 1541 1544 1546 1543 1538 1529 1520 1517 1502 1498 1494 1495 1490 1488 1485 1479 1472
1479 1473 1473 1473 1478 1480 1485 1483 1486 1487 1499 1519 1519 1521 1521 1521 1524 1525 1525 1525 1525 1529 1530 1532 1532 1534 1536 1537 1540 1545 1535 1535 1533 1530 1521 1517 1512 1501 1496 1494 1489 1484 1482 1478 1470
1479 1476 1474 1478 1480 1483 1489 1487 1486 1488 1514 1525 1523 1523 1523 1522 1526 1526 1525 1525 1527 1528 1531 1534 1533 1535 1536 1536 1536 1529 1530 1529 1526 1527 1525 1522 1521 1494 1496 1489 1489 1484 1481 1476 1470
1486 1485 1483 1486 1487 1488 1489 1489 1489 1502 1523 1526 1525 1523 1523 1523 1525 1526 1526 1526 1527 1529 1531 1533 1533 1533 1531 1530 1530 1528 1526 1524 1525 1526 1530 1524 1518 1490 1496 1498 1491 1484 1480 1475 1471
1492 1492 1492 1492 1494 1493 1492 1491 1504 1511 1531 1530 1527 1524 1522 1527 1526 1526 1527 1528 1533 1541 1548 1535 1531 1529 1529 1530 1530 1527 1523 1523 1533 1538 1514 1519 1517 1496 1499 1498 1493 1485 1482 1479 1475
1495 1496 1496 1495 1494 1493 1491 1494 1519 1525 1525 1527 1525 1524 1527 1528 1529 1530 1532 1538 1532 1533 1546 1548 1539 1527 1525 1524 1522 1522 1522 1521 1520 1528 1517 1514 1510 1495 1499 1497 1493 1488 1486 1481 1477
1498 1498 1496 1495 1493 1493 1493 1510 1528 1523 1525 1527 1529 1530 1534 1528 1531 1532 1533 1532 1528 1531 1537 1535 1535 1520 1521 1520 1521 1520 1521 1520 1519 1520 1518 1513 1504 1497 1494 1495 1493 1490 1488 1484 1480
1500 1498 1498 1497 1495 1496 1499 1518 1526 1524 1525 1526 1527 1529 1532 1531 1533 1533 1531 1527 1526 1527 1526 1530 1530 1519 1518 1518 1519 1520 1522 1524 1520 1517 1520 1507 1503 1494 1492 1492 1492 1490 1489 1487 1483
1501 1500 1503 1502 1501 1501 1518 1525 1524 1524 1525 1526 1527 1529 1529 1530 1530 1531 1529 1527 1525 1528 1527 1527 1530 1524 1519 1519 1516 1522 1521 1521 1521 1521 1518 1508 1494 1494 1492 1491 1491 1491 1489 1488 1486
1503 1506 1507 1503 1507 1516 1525 1525 1524 1525 1524 1525 1526 1526 1528 1529 1528 1529 1528 1527 1525 1526 1528 1530 1531 1527 1521 1514 1514 1514 1514 1519 1523 1520 1521 1518 1496 1491 1491 1491 1490 1491 1490 1488 1486
1507 1508 1509 1507 1522 1528 1524 1525 1525 1525 1525 1524 1524 1524 1525 1527 1527 1528 1526 1524 1524 1526 1528 1530 1534 1536 1523 1518 1516 1515 1514 1515 1520 1525 1518 1513 1488 1491 1491 1491 1491 1491 1490 1488 1487
1510 1514 1513 1511 1516 1519 1523 1526 1524 1523 1524 1523 1524 1523 1524 1526 1528 1528 1525 1524 1524 1524 1526 1527 1533 1531 1532 1515 1514 1513 1513 1513 1516 1525 1511 1506 1492 1492 1490 1489 1490 1489 1489 1488 1486
1513 1518 1519 1524 1520 1520 1520 1523 1524 1524 1521 1521 1524 1526 1527 1526 1526 1526 1525 1523 1523 1522 1525 1527 1529 1530 1521 1514 1513 1508 1505 1509 1511 1505 1505 1492 1494 1485 1484 1483 1484 1485 1486 1486 1485
1516 1519 1521 1521 1522 1523 1522 1524 1522 1521 1519 1520 1521 1522 1523 1523 1522 1522 1522 1523 1522 1523 1525 1527 1528 1525 1525 1507 1507 1505 1500 1500 1499 1497 1497 1494 1486 1475 1476 1477 1480 1480 1481 1482 1482
1519 1520 1521 1523 1523 1526 1526 1524 1523 1522 1519 1519 1519 1520 1521 1516 1513 1512 1512 1513 1514 1517 1520 1522 1525 1529 1520 1509 1506 1497 1486 1490 1486 1485 1483 1486 1475 1474 1475 1475 1474 1475 1477 1478 1479